Lid_Strength_Index
6 5 5 5 5 4 3 3 3 1 1 1 1 2 2 3 3 3 4 4 3 3 2 2 2 1 1 1 1 1 2 2 4 3 1 1 1 1 0 -0 -0 0 0
6 5 5 5 5 4 4 4 3 3 2 1 1 2 2 2 3 4 4 3 3 4 3 3 2 1 1 1 1 2 2 2 3 4 2 2 1 1 0 0 0 -0 0
6 6 6 6 5 5 5 4 4 3 2 2 2 2 2 2 2 3 3 3 3 3 3 2 2 1 2 2 2 2 2 2 2 3 3 2 1 1 1 0 1 1 0
6 6 6 6 6 5 5 4 4 3 3 3 3 2 2 2 2 3 3 3 3 3 3 2 2 1 2 1 2 2 2 2 2 3 3 3 2 1 1 2 2 1 2
6 6 6 5 5 5 5 5 4 4 4 4 4 4 3 2 2 1 1 1 2 2 2 1 1 1 1 1 1 2 2 2 3 3 3 3 3 3 3 2 3 2 2
7 7 6 6 5 5 5 5 5 5 5 5 5 4 3 3 5 4 3 2 2 2 2 2 2 2 2 2 2 2 1 2 3 3 4 4 3 3 2 3 3 4 5
7 7 6 6 6 6 6 6 6 7 6 6 5 5 5 4 6 7 6 4 4 3 4 4 4 3 3 1 2 3 3 2 2 2 3 3 3 2 2 3 4 4 4
8 8 7 7 7 7 7 8 8 7 7 6 6 6 7 6 8 8 8 5 4 4 4 4 4 3 3 2 1 2 1 1 1 1 1 1 1 2 1 2 4 4 5
9 9 8 8 8 9 9 8 8 9 9 9 9 9 8 7 8 9 8 6 5 4 4 3 3 3 5 6 2 2 2 2 2 4 3 5 7 7 5 4 5 6 7
10 9 9 9 9 8 9 9 9 10 11 10 10 9 9 7 8 9 7 6 5 5 4 3 4 3 6 7 5 3 4 3 2 2 2 6 7 6 7 3 5 6 5
10 10 9 9 10 10 10 10 11 12 11 11 11 9 7 6 6 7 8 6 5 5 4 3 1 6 8 8 9 2 3 2 3 2 4 4 5 4 4 4 4 4 4
10 11 11 11 11 12 12 12 12 12 11 10 9 8 8 7 7 7 8 8 6 4 4 2 3 6 8 8 7 8 8 5 4 4 4 5 4 5 5 4 4 3 2
12 13 13 13 12 12 13 13 13 10 10 10 9 9 8 6 5 7 8 9 9 8 4 4 7 9 9 7 9 9 7 4 5 4 4 4 4 3 2 2 1 1 1
15 15 14 14 13 12 12 12 10 10 10 10 9 9 8 6 5 6 6 5 7 6 4 4 6 7 9 7 7 6 4 3 3 3 4 3 3 2 2 1 1 1 2
15 15 14 13 12 12 11 10 10 9 9 9 10 9 8 8 7 8 6 4 3 3 4 4 5 6 6 6 5 4 3 3 4 3 3 3 3 2 2 2 1 2 3
15 15 13 12 12 11 11 10 9 10 10 10 11 10 8 9 9 10 8 8 8 8 5 5 5 5 5 4 3 3 2 3 2 3 3 3 3 2 2 2 1 2 3
16 14 14 13 12 12 12 12 12 10 10 10 10 10 11 9 9 8 8 7 9 9 5 6 5 4 4 3 3 3 3 3 3 3 3 3 2 2 3 2 2 2 3
15 14 13 12 12 12 12 12 11 11 11 10 9 10 10 9 10 9 9 7 6 7 6 5 4 3 3 3 3 3 3 3 3 3 3 2 2 2 2 2 2 3 3
15 14 12 11 11 11 11 11 11 10 11 10 8 10 8 10 10 10 10 6 7 7 7 5 3 3 2 2 2 2 3 3 3 3 2 2 2 2 2 2 2 8 6
14 14 11 10 10 10 10 12 11 11 11 10 9 8 7 8 8 8 8 7 7 7 7 6 3 3 2 2 2 3 3 3 3 3 2 2 1 1 2 2 2 3 3
14 13 11 9 10 10 10 11 11 11 10 9 8 7 11 8 8 9 9 8 8 8 7 6 3 2 2 2 3 3 2 3 3 3 2 2 1 2 2 2 2 2 2
13 11 10 9 10 11 11 11 11 10 9 9 8 8 13 8 8 9 9 8 8 7 7 6 5 3 2 3 3 3 4 4 3 2 1 1 1 1 2 2 2 2 2
14 12 11 11 10 11 10 10 10 9 9 9 9 8 8 8 8 9 9 8 7 7 6 6 5 4 3 3 3 3 4 3 2 1 1 1 2 1 1 2 2 2 3
13 12 12 12 12 11 10 10 10 10 10 9 9 8 8 7 6 8 8 8 7 6 5 5 4 4 4 4 3 3 2 1 -0 0 0 1 1 2 1 2 2 2 3
14 13 13 13 13 12 11 10 10 8 9 9 8 8 8 7 7 6 7 7 7 6 5 5 4 4 4 3 2 1 8 11 1 5 0 1 1 1 1 2 2 4 5
15 15 14 14 14 14 13 13 12 10 8 8 8 8 7 7 6 6 6 6 6 6 6 5 4 4 3 3 3 9 12 12 6 10 -0 0 1 1 1 2 5 6 7